| time (UTC) | temp F | wind direction | speed MPH | gust MPH | rain 1hr in | rain 24hr in | rain mn in | humidity % | barometer mb |
| 20260904172021 | 90 | 0.0 | 0.0 | 0.00 | 0.00 | 0.00 | 58 | 1015.2 | |
| 20260904171026 | 90 | 0.0 | 0.0 | 0.00 | 0.00 | 0.00 | 56 | 1015.3 | |
| 20260904170021 | 89 | 0.0 | 0.0 | 0.00 | 0.00 | 0.00 | 60 | 1015.4 | |
| 20260904165021 | 88 | 0.0 | 0.0 | 0.00 | 0.00 | 0.00 | 64 | 1015.5 | |
| 20260904164021 | 88 | 0.0 | 0.0 | 0.00 | 0.00 | 0.00 | 65 | 1015.6 | |
| 20260904163021 | 88 | 0.0 | 0.0 | 0.00 | 0.00 | 0.00 | 67 | 1015.8 | |
| 20260904162022 | 88 | 0.0 | 0.0 | 0.00 | 0.00 | 0.00 | 66 | 1015.9 | |
| 20260904161021 | 88 | 0.0 | 0.0 | 0.00 | 0.00 | 0.00 | 66 | 1015.8 | |
| 20260904160021 | 88 | 0.0 | 0.0 | 0.00 | 0.00 | 0.00 | 68 | 1015.9 | |
| 20260904155021 | 87 | 0.0 | 0.0 | 0.00 | 0.00 | 0.00 | 70 | 1015.8 | |
| 20260904154021 | 86 | 0.0 | 0.0 | 0.00 | 0.00 | 0.00 | 74 | 1015.9 | |
| 20260904153022 | 86 | 0.0 | 0.0 | 0.00 | 0.00 | 0.00 | 75 | 1015.8 | |
| 20260904152021 | 85 | 0.0 | 0.0 | 0.00 | 0.00 | 0.00 | 77 | 1015.9 | |
| 20260904151021 | 84 | 0.0 | 0.0 | 0.00 | 0.00 | 0.00 | 77 | 1015.8 | |
| 20260904150021 | 84 | 0.0 | 0.0 | 0.00 | 0.00 | 0.00 | 79 | 1015.8 | |
| 20260904145022 | 84 | 0.0 | 0.0 | 0.00 | 0.00 | 0.00 | 79 | 1015.8 | |
| 20260904144021 | 84 | 0.0 | 0.0 | 0.00 | 0.00 | 0.00 | 79 | 1015.7 | |
| 20260904143021 | 83 | 0.0 | 0.0 | 0.00 | 0.00 | 0.00 | 81 | 1015.6 | |
| 20260904142023 | 83 | 0.0 | 0.0 | 0.00 | 0.00 | 0.00 | 81 | 1015.5 | |
| 20260904141023 | 83 | 0.0 | 0.0 | 0.00 | 0.00 | 0.00 | 82 | 1015.5 | |
| 20260904140023 | 83 | 0.0 | 0.0 | 0.00 | 0.00 | 0.00 | 81 | 1015.5 | |
| 20260904135023 | 83 | 0.0 | 0.0 | 0.00 | 0.00 | 0.00 | 81 | 1015.6 | |
| 20260904134023 | 82 | 0.0 | 0.0 | 0.00 | 0.00 | 0.00 | 84 | 1015.5 | |
| 20260904133023 | 82 | 0.0 | 0.0 | 0.00 | 0.00 | 0.00 | 85 | 1015.3 | |
| 20260904132023 | 81 | 0.0 | 0.0 | 0.00 | 0.00 | 0.00 | 85 | 1015.4 | |
| 20260904131023 | 81 | 0.0 | 0.0 | 0.00 | 0.00 | 0.00 | 85 | 1015.4 | |
| 20260904130022 | 81 | 0.0 | 0.0 | 0.00 | 0.00 | 0.00 | 86 | 1015.3 | |
| 20260904125023 | 80 | 0.0 | 0.0 | 0.00 | 0.00 | 0.00 | 86 | 1015.2 | |
| 20260904124023 | 80 | 0.0 | 0.0 | 0.00 | 0.00 | 0.00 | 87 | 1015.2 | |
| 20260904123022 | 80 | 0.0 | 0.0 | 0.00 | 0.00 | 0.00 | 88 | 1015.2 | |
| 20260904122023 | 79 | 0.0 | 0.0 | 0.00 | 0.00 | 0.00 | 88 | 1015.2 | |
| 20260904121025 | 79 | 0.0 | 0.0 | 0.00 | 0.00 | 0.00 | 89 | 1015.1 | |
| 20260904120022 | 78 | 0.0 | 0.0 | 0.00 | 0.00 | 0.00 | 89 | 1015.0 | |
| 20260904115022 | 78 | 0.0 | 0.0 | 0.00 | 0.00 | 0.00 | 89 | 1014.9 | |
| 20260904114022 | 77 | 0.0 | 0.0 | 0.00 | 0.00 | 0.00 | 90 | 1014.8 | |
| 20260904113022 | 77 | 0.0 | 0.0 | 0.00 | 0.00 | 0.00 | 90 | 1014.7 | |
| 20260904112030 | 77 | 0.0 | 0.0 | 0.00 | 0.00 | 0.00 | 90 | 1014.6 | |
| 20260904111023 | 77 | 0.0 | 0.0 | 0.00 | 0.00 | 0.00 | 90 | 1014.5 | |
| 20260904110022 | 77 | 0.0 | 0.0 | 0.00 | 0.00 | 0.00 | 90 | 1014.5 | |
| 20260904105022 | 77 | 0.0 | 0.0 | 0.00 | 0.00 | 0.00 | 90 | 1014.5 | |
| 20260904104022 | 77 | 0.0 | 0.0 | 0.00 | 0.00 | 0.00 | 90 | 1014.4 | |
| 20260904103022 | 77 | 0.0 | 0.0 | 0.00 | 0.00 | 0.00 | 90 | 1014.2 | |
| 20260904102023 | 77 | 0.0 | 0.0 | 0.00 | 0.00 | 0.00 | 91 | 1014.2 | |
| 20260904101022 | 77 | 0.0 | 0.0 | 0.00 | 0.00 | 0.00 | 91 | 1014.1 | |
| 20260904100022 | 76 | 0.0 | 0.0 | 0.00 | 0.00 | 0.00 | 91 | 1014.1 | |
| 20260904095022 | 76 | 0.0 | 0.0 | 0.00 | 0.00 | 0.00 | 91 | 1014.1 | |
| 20260904094025 | 76 | 0.0 | 0.0 | 0.00 | 0.00 | 0.00 | 91 | 1014.1 | |
| 20260904093023 | 76 | 0.0 | 0.0 | 0.00 | 0.00 | 0.00 | 91 | 1014.0 | |
| 20260904092023 | 76 | 0.0 | 0.0 | 0.00 | 0.00 | 0.00 | 90 | 1014.0 | |
| 20260904091022 | 76 | 0.0 | 0.0 | 0.00 | 0.00 | 0.00 | 91 | 1013.8 | |
| 20260904090022 | 77 | 0.0 | 0.0 | 0.00 | 0.00 | 0.00 | 90 | 1013.8 | |
| 20260904085022 | 77 | 0.0 | 0.0 | 0.00 | 0.00 | 0.00 | 90 | 1013.8 | |
| 20260904084022 | 77 | 0.0 | 0.0 | 0.00 | 0.00 | 0.00 | 90 | 1013.8 | |
| 20260904083024 | 77 | 0.0 | 0.0 | 0.00 | 0.00 | 0.00 | 90 | 1014.0 | |
| 20260904082022 | 77 | 0.0 | 0.0 | 0.00 | 0.00 | 0.00 | 90 | 1013.9 | |
| 20260904081023 | 77 | 0.0 | 0.0 | 0.00 | 0.00 | 0.00 | 90 | 1013.8 | |
| 20260904080022 | 77 | 0.0 | 0.0 | 0.00 | 0.00 | 0.00 | 90 | 1013.7 | |
| 20260904075022 | 77 | 0.0 | 0.0 | 0.00 | 0.00 | 0.00 | 90 | 1013.8 | |
| 20260904074022 | 77 | 0.0 | 0.0 | 0.00 | 0.00 | 0.00 | 89 | 1013.8 | |
| 20260904073022 | 77 | 0.0 | 0.0 | 0.00 | 0.00 | 0.00 | 89 | 1013.8 | |
| 20260904072022 | 77 | 0.0 | 0.0 | 0.00 | 0.00 | 0.00 | 89 | 1013.9 | |
| 20260904071022 | 77 | 0.0 | 0.0 | 0.00 | 0.00 | 0.00 | 89 | 1013.8 | |
| 20260904070022 | 77 | 0.0 | 0.0 | 0.00 | 0.00 | 0.00 | 89 | 1013.9 | |
| 20260904065022 | 77 | 0.0 | 0.0 | 0.00 | 0.00 | 0.00 | 89 | 1013.8 | |
| 20260904064022 | 78 | 0.0 | 0.0 | 0.00 | 0.00 | 0.00 | 89 | 1013.9 | |
| 20260904063022 | 77 | 0.0 | 0.0 | 0.00 | 0.00 | 0.00 | 89 | 1013.9 | |
| 20260904062029 | 78 | 0.0 | 0.0 | 0.00 | 0.00 | 0.00 | 88 | 1013.9 | |
| 20260904061021 | 78 | 0.0 | 0.0 | 0.00 | 0.00 | 0.00 | 88 | 1014.0 | |
| 20260904060022 | 78 | 0.0 | 0.0 | 0.00 | 0.00 | 0.00 | 88 | 1014.0 | |
| 20260904055022 | 78 | 0.0 | 0.0 | 0.00 | 0.00 | 0.00 | 88 | 1013.9 | |
| 20260904054021 | 78 | 0.0 | 0.0 | 0.00 | 0.00 | 0.00 | 87 | 1014.0 | |
| 20260904053022 | 78 | 0.0 | 0.0 | 0.00 | 0.00 | 0.00 | 87 | 1014.1 | |
| 20260904052022 | 78 | 0.0 | 0.0 | 0.00 | 0.00 | 0.00 | 87 | 1014.2 | |
| 20260904051022 | 78 | 0.0 | 0.0 | 0.00 | 0.00 | 0.00 | 86 | 1014.2 | |
| 20260904050022 | 79 | 0.0 | 0.0 | 0.00 | 0.00 | 0.00 | 86 | 1014.2 | |
| 20260904045021 | 79 | 0.0 | 0.0 | 0.00 | 0.00 | 0.00 | 86 | 1014.3 | |
| 20260904044033 | 79 | 0.0 | 0.0 | 0.00 | 0.00 | 0.00 | 86 | 1014.2 | |
| 20260904043021 | 79 | 0.0 | 0.0 | 0.00 | 0.00 | 0.00 | 86 | 1014.3 | |
| 20260904042021 | 79 | 0.0 | 0.0 | 0.00 | 0.00 | 0.00 | 85 | 1014.2 | |
| 20260904041021 | 79 | 0.0 | 0.0 | 0.00 | 0.00 | 0.00 | 84 | 1014.0 | |
| 20260904040024 | 80 | 0.0 | 0.0 | 0.00 | 0.00 | 0.00 | 85 | 1014.2 | |
| 20260904035021 | 80 | 0.0 | 0.0 | 0.00 | 0.00 | 0.00 | 84 | 1014.2 | |
| 20260904034021 | 80 | 0.0 | 0.0 | 0.00 | 0.00 | 0.00 | 84 | 1014.3 | |
| 20260904033021 | 80 | 0.0 | 0.0 | 0.00 | 0.00 | 0.00 | 84 | 1014.3 | |
| 20260904032021 | 80 | 0.0 | 0.0 | 0.00 | 0.00 | 0.00 | 84 | 1014.5 | |
| 20260904031023 | 80 | 0.0 | 0.0 | 0.00 | 0.00 | 0.00 | 83 | 1014.5 | |
| 20260904030022 | 81 | 0.0 | 0.0 | 0.00 | 0.00 | 0.00 | 84 | 1014.5 | |
| 20260904025021 | 81 | 0.0 | 0.0 | 0.00 | 0.00 | 0.00 | 83 | 1014.6 | |
| 20260904024021 | 81 | 0.0 | 0.0 | 0.00 | 0.00 | 0.00 | 83 | 1014.5 | |
| 20260904023022 | 81 | 0.0 | 0.0 | 0.00 | 0.00 | 0.00 | 82 | 1014.4 | |
| 20260904022021 | 81 | 0.0 | 0.0 | 0.00 | 0.00 | 0.00 | 82 | 1014.3 | |
| 20260904021021 | 81 | 0.0 | 0.0 | 0.00 | 0.00 | 0.00 | 82 | 1014.2 | |
| 20260904020021 | 82 | 0.0 | 0.0 | 0.00 | 0.00 | 0.00 | 82 | 1014.0 | |
| 20260904015021 | 82 | 0.0 | 0.0 | 0.00 | 0.00 | 0.00 | 80 | 1014.0 | |
| 20260904014027 | 82 | 0.0 | 0.0 | 0.00 | 0.00 | 0.00 | 80 | 1013.9 | |
| 20260904013021 | 83 | 0.0 | 0.0 | 0.00 | 0.00 | 0.00 | 79 | 1013.7 | |
| 20260904012023 | 83 | 0.0 | 0.0 | 0.00 | 0.00 | 0.00 | 80 | 1013.7 | |
| 20260904011023 | 83 | 0.0 | 0.0 | 0.00 | 0.00 | 0.00 | 79 | 1013.6 | |
| 20260904010023 | 83 | 0.0 | 0.0 | 0.00 | 0.00 | 0.00 | 79 | 1013.7 | |
| 20260904005023 | 84 | 0.0 | 0.0 | 0.00 | 0.00 | 0.00 | 80 | 1013.4 | |
| 20260904004023 | 84 | 0.0 | 0.0 | 0.00 | 0.00 | 0.00 | 80 | 1013.3 | |
| 20260904003022 | 84 | 0.0 | 0.0 | 0.00 | 0.00 | 0.00 | 79 | 1013.3 | |
| 20260904002023 | 84 | 0.0 | 0.0 | 0.00 | 0.00 | 0.00 | 78 | 1013.3 | |
| 20260904001023 | 86 | 0.0 | 0.0 | 0.00 | 0.00 | 0.00 | 74 | 1013.1 | |
| 20260904000022 | 87 | 0.0 | 0.0 | 0.00 | 0.00 | 0.00 | 71 | 1013.0 | |
| 20260903235023 | 87 | 0.0 | 0.0 | 0.00 | 0.00 | 0.00 | 63 | 1012.9 | |
| 20260903234025 | 87 | 0.0 | 0.0 | 0.00 | 0.00 | 0.00 | 61 | 1012.9 | |
| 20260903233022 | 87 | 0.0 | 0.0 | 0.00 | 0.00 | 0.00 | 63 | 1012.9 | |
| 20260903232023 | 87 | 0.0 | 0.0 | 0.00 | 0.00 | 0.00 | 67 | 1013.1 | |
| 20260903231022 | 87 | 0.0 | 0.0 | 0.00 | 0.00 | 0.00 | 67 | 1013.1 | |
| 20260903230022 | 87 | 0.0 | 0.0 | 0.00 | 0.00 | 0.00 | 63 | 1013.2 | |
| 20260903225022 | 88 | 0.0 | 0.0 | 0.00 | 0.00 | 0.00 | 63 | 1013.3 | |
| 20260903224022 | 88 | 0.0 | 0.0 | 0.00 | 0.00 | 0.00 | 62 | 1013.4 | |
| 20260903223022 | 90 | 0.0 | 0.0 | 0.00 | 0.00 | 0.00 | 66 | 1013.0 | |
| 20260903222022 | 94 | 0.0 | 0.0 | 0.00 | 0.00 | 0.00 | 56 | 1013.0 | |
| 20260903221022 | 96 | 0.0 | 0.0 | 0.00 | 0.00 | 0.00 | 50 | 1013.0 | |
| 20260903220021 | 96 | 0.0 | 0.0 | 0.00 | 0.00 | 0.00 | 49 | 1012.7 | |
| 20260903215023 | 97 | 0.0 | 0.0 | 0.00 | 0.00 | 0.00 | 47 | 1012.6 | |
| 20260903214021 | 97 | 0.0 | 0.0 | 0.00 | 0.00 | 0.00 | 46 | 1012.6 | |
| 20260903213022 | 96 | 0.0 | 0.0 | 0.00 | 0.00 | 0.00 | 48 | 1012.8 | |
| 20260903212022 | 95 | 0.0 | 0.0 | 0.00 | 0.00 | 0.00 | 51 | 1012.7 | |
| 20260903211022 | 95 | 0.0 | 0.0 | 0.00 | 0.00 | 0.00 | 49 | 1012.7 | |
| 20260903210022 | 95 | 0.0 | 0.0 | 0.00 | 0.00 | 0.00 | 50 | 1012.7 | |
| 20260903205022 | 95 | 0.0 | 0.0 | 0.00 | 0.00 | 0.00 | 51 | 1012.9 | |
| 20260903204022 | 94 | 0.0 | 0.0 | 0.00 | 0.00 | 0.00 | 53 | 1013.1 | |
| 20260903203022 | 94 | 0.0 | 0.0 | 0.00 | 0.00 | 0.00 | 51 | 1013.3 | |
| 20260903202022 | 94 | 0.0 | 0.0 | 0.00 | 0.00 | 0.00 | 51 | 1013.4 | |
| 20260903201022 | 93 | 0.0 | 0.0 | 0.00 | 0.00 | 0.00 | 55 | 1013.5 | |
| 20260903200022 | 93 | 0.0 | 0.0 | 0.00 | 0.00 | 0.00 | 57 | 1013.7 | |
| 20260903195022 | 93 | 0.0 | 0.0 | 0.00 | 0.00 | 0.00 | 55 | 1013.7 | |
| 20260903194022 | 93 | 0.0 | 0.0 | 0.00 | 0.00 | 0.00 | 58 | 1013.9 | |
| 20260903193022 | 92 | 0.0 | 0.0 | 0.00 | 0.00 | 0.00 | 60 | 1014.0 | |
| 20260903192029 | 93 | 0.0 | 0.0 | 0.00 | 0.00 | 0.00 | 59 | 1014.2 | |
| 20260903191022 | 93 | 0.0 | 0.0 | 0.00 | 0.00 | 0.00 | 58 | 1014.2 | |
| 20260903190022 | 93 | 0.0 | 0.0 | 0.00 | 0.00 | 0.00 | 59 | 1014.4 | |
| 20260903185022 | 93 | 0.0 | 0.0 | 0.00 | 0.00 | 0.00 | 59 | 1014.4 | |
| 20260903184022 | 93 | 0.0 | 0.0 | 0.00 | 0.00 | 0.00 | 58 | 1014.5 | |
| 20260903183022 | 93 | 0.0 | 0.0 | 0.00 | 0.00 | 0.00 | 57 | 1014.7 | |
| 20260903182022 | 93 | 0.0 | 0.0 | 0.00 | 0.00 | 0.00 | 56 | 1014.7 | |
| 20260903181022 | 93 | 0.0 | 0.0 | 0.00 | 0.00 | 0.00 | 56 | 1014.8 | |
| 20260903180022 | 93 | 0.0 | 0.0 | 0.00 | 0.00 | 0.00 | 55 | 1015.0 | |
| 20260903175023 | 93 | 0.0 | 0.0 | 0.00 | 0.00 | 0.00 | 54 | 1015.0 | |
| 20260903174022 | 92 | 0.0 | 0.0 | 0.00 | 0.00 | 0.00 | 54 | 1015.1 | |
| 20260903173021 | 92 | 0.0 | 0.0 | 0.00 | 0.00 | 0.00 | 55 | 1015.3 |